OpenBCM V1.13 (Linux)

Packet Radio Mailbox

DB0FHN

[JN59NK Nuernberg]

 Login: GUEST





  
LU9DCE > KEPLER   24.06.19 20:04l 244 Lines 12013 Bytes #999 (0) @ WW
BID : 27432_LU9DCE
Read: DF7EAV DJ6UX GUEST
Subj: TLE 24 06
Path: DB0FHN<DB0BLO<DB0ERF<IZ3LSV<IR2UBX<OK0NBR<OK2PEN<N3HYM<LU3DVN<LU9DCE
Sent: 190624/1801Z 27432@LU9DCE.TOR.BA.ARG.SOAM LinBPQ6.0.18

            __    _  _  ___  ____   ___  ____    ____  ____  ____
           (  )  / )( \/ _ \(    \ / __)(  __)  (  _ \(  _ \/ ___)
           / (_/\) \/ (\__  )) D (( (__  ) _)    ) _ ( ) _ (\___ \
           \____/\____/(___/(____/ \___)(____)  (____/(____/(____/
               ESTACION DE PACKET RADIO - BUENOS AIRES (GF05OM)
                   BOLETINES INFORMATIVOS PROGRAMADOS (BIP)
                  SLACKWARE LINUX - HELLOCODELINUX@GMAIL.COM

+----------------------------------------------------------------------------+
OSCAR 7
1  7530U 74089B   19175.13223590 -.00000023  00000-0  13646-3 0  9990
2  7530 101.7439 142.7372 0012086 338.9888  83.2981 12.53638640 41208
OSCAR 11 (UoSAT 2)
1 14781U 84021B   19175.50242539  .00000031  00000-0  98759-5 0  9996
2 14781  97.6102 199.9463 0007173 307.2535  52.8025 14.83091606899626
OSCAR 19 (LUSAT)
1 20442U 90005G   19174.90618100 -.00000002 +00000-0 +15349-4 0  9992
2 20442 098.6488 116.8972 0012604 130.2769 229.9518 14.32927552537069
EYESAT A
1 22825U 93061C   19174.95731867 -.00000020 +00000-0 +10184-4 0  9997
2 22825 098.9030 163.7142 0008209 351.5608 008.5434 14.30060848342435
ITAMSAT
1 22826U 93061D   19174.95775807 -.00000017  00000-0  11393-4 0  9999
2 22826  98.8971 163.7055 0008507 339.6084  20.4757 14.30394454342904
RADIO ROSTO
1 23439U 94085A   19175.19229219 -.00000018  00000-0  69691-3 0  9999
2 23439  64.8171 107.2295 0146179 112.1332 249.5181 11.27568177  8673
JAS 2
1 24278U 96046B   19175.39122063 -.00000010  00000-0  27357-4 0  9997
2 24278  98.5379 328.0290 0349586 225.1139 132.1128 13.53091985128573
TECHSAT 1B
1 25397U 98043D   19175.38254283 -.00000018  00000-0  11408-4 0  9996
2 25397  98.6889 115.4575 0002048  52.0463 308.0901 14.23666905 88681
ISS (ZARYA)
1 25544U 98067A   19175.67652778  .00152792  00000-0  25167-2 0  9990
2 25544  51.6367 324.1300 0008405  81.2938 111.0062 15.51248103176411
PCSAT
1 26931U 01043C   19175.02391211 -.00000052  00000-0  11986-4 0  9998
2 26931  67.0516 349.9206 0006735 278.9393  81.0946 14.30545249925734
SAUDISAT 1C
1 27607U 02058C   19175.10422085 -.00000057  00000-0  12988-4 0  9997
2 27607  64.5556  33.0492 0081181 255.4922 103.7165 14.75553967887833
CUTE-1
1 27844U 03031E   19175.49237966  .00000018  00000-0  27750-4 0  9995
2 27844  98.6832 183.6190 0010258  21.6099 338.5510 14.22182161829118
CUBESAT XI 4
1 27848U 03031J   19174.85280310 +.00000014 +00000-0 +26042-4 0  9998
2 27848 098.6910 183.4904 0010399 034.1013 326.0831 14.21776703828848
MOZHAYETS 4
1 27939U 03042A   19175.50548185  .00000081  00000-0  23016-4 0  9993
2 27939  98.0417 311.2074 0013982  53.2261 307.0224 14.66786147841394
CUBESAT XI 5
1 28895U 05043F   19175.38753605  .00000073  00000-0  22857-4 0  9992
2 28895  97.9602 317.9235 0016130 338.3491  21.7028 14.63669747728313
CUTE-1.7+APD II
1 32785U 08021C   19175.46742186  .00000138  00000-0  20553-4 0  9998
2 32785  97.5492 174.9093 0011615 240.7048 119.3009 14.88312701604542
DELFI C3
1 32789U 08021G   19174.93013690 +.00000580 +00000-0 +42770-4 0  9990
2 32789 097.4638 224.4377 0014041 106.3068 253.9706 15.06960443607655
SEEDS
1 32791U 08021J   19175.00635675  .00000130  00000-0  18512-4 0  9993
2 32791  97.5275 180.4493 0012319 214.4688 145.5733 14.90823273604903
YUBELEINY
1 32953U 08025A   19175.43945172  .00000021  00000-0  75656-4 0  9991
2 32953  82.5009 141.1896 0020330 114.3134 246.0069 12.43090118503029
PRISM (HITOMI)
1 33493U 09002B   19174.87717821 +.00000414 +00000-0 +41820-4 0  9994
2 33493 098.1226 096.0290 0015341 159.7653 200.4179 14.96660776565919
KKS-1 (KISEKI)
1 33499U 09002H   19175.16793331  .00000072  00000-0  18629-4 0  9994
2 33499  98.3501  14.0503 0009022 181.0627 179.0564 14.75443073560031
SWISSCUBE
1 35932U 09051B   19174.88743303 +.00000080 +00000-0 +29045-4 0  9997
2 35932 098.5885 341.0123 0008420 142.6435 217.5349 14.56286298517498
BEESAT
1 35933U 09051C   19175.43971372  .00000062  00000-0  24940-4 0  9998
2 35933  98.5912 343.3417 0006414 150.8686 209.2870 14.56375308517725
ITUPSAT 1
1 35935U 09051E   19174.95075488 +.00000037 +00000-0 +19669-4 0  9993
2 35935 098.6023 343.0760 0008707 152.3718 207.7942 14.55535043517376
XIWANG-1 (HOPE-1)
1 36122U 09072B   19174.75204559 -.00000039 +00000-0 +80745-5 0  9993
2 36122 100.0711 176.8936 0007586 341.2321 018.8510 13.16349828457541
TISAT 1
1 36799U 10035E   19175.38625576  .00000210  00000-0  27269-4 0  9991
2 36799  98.1565 327.7273 0013569  70.1372 290.1306 14.91105655485617
JUGNU
1 37839U 11058B   19174.46581847  .00000297  00000-0  16566-4 0  9996
2 37839  19.9621 305.8302 0019081  19.9119  32.3674 14.12652660397939
SRMSAT
1 37841U 11058D   19172.24056713  .00000300  00000-0  19474-4 0  9998
2 37841  19.9739  16.1470 0011884 224.7875  97.7219 14.10633950397050
M-CUBED/EXP-1 PRIME
1 37855U 11061F   19174.65111948  .00001000  00000-0  57741-4 0  9993
2 37855 101.7143  72.7956 0173777  62.1088 299.7603 15.05419940417523
HORYU 2
1 38340U 12025D   19174.66086658  .00000102  00000-0  22929-4 0  9996
2 38340  98.3284 213.4010 0012890 106.9937 253.2685 14.75720782381893
STRAND 1
1 39090U 13009E   19175.15473087 -.00000015  00000-0  99272-5 0  9993
2 39090  98.4881  21.0220 0007910 273.8447  86.1834 14.35087562331176
SOMP
1 39134U 13015E   19175.47814476  .00000502  00000-0  32368-4 0  9997
2 39134  64.8635   1.6915 0030919 302.6967  57.1179 15.20161124341473
BEESAT 3
1 39135U 13015F   19175.54238227  .00000560  00000-0  37624-4 0  9994
2 39135  64.8693  19.8624 0021802 321.5348  38.4223 15.17470720341136
BEESAT 2
1 39136U 13015G   19174.92230385 +.00000548 +00000-0 +37584-4 0  9994
2 39136 064.8700 025.7011 0019465 300.4287 059.4915 15.16897200340575
CUBEBUG 1
1 39153U 13018D   19175.23738715  .00000094  00000-0  19240-4 0  9996
2 39153  97.9786 273.3310 0017119 175.7763 184.3596 14.80568052332635
ZACUBE
1 39417U 13066B   19174.90701067 +.00000115 +00000-0 +20833-4 0  9999
2 39417 097.5619 188.1155 0059457 018.4552 341.8800 14.81115975301816
TRITON 1
1 39427U 13066M   19174.90900830 +.00000148 +00000-0 +31307-4 0  9993
2 39427 097.6761 151.9646 0114555 148.1067 212.7142 14.67841544298915
GOMX 1
1 39430U 13066Q   19175.38230589  .00000119  00000-0  30917-4 0  9991
2 39430  97.7467 131.5602 0149755 236.1275 122.5616 14.59253717297438
HUMSAT D
1 39433U 13066T   19174.84419412 +.00000041 +00000-0 +94292-5 0  9999
2 39433 097.5530 222.1398 0029128 284.2374 075.5611 14.92192226302662
CUBEBUG 2
1 39440U 13066AA  19174.97171253  .00000110  00000-0  22127-4 0  9993
2 39440  97.6017 173.0966 0081789  68.2627 292.7264 14.75854053300757
FUNCUBE 1
1 39444U 13066AE  19174.56709179 +.00000154 +00000-0 +25268-4 0  9993
2 39444 097.5601 189.7451 0058439 013.5010 346.7751 14.81934496300069
UWE-3
1 39446U 13066AG  19175.44053510  .00000126  00000-0  23347-4 0  9999
2 39446  97.5809 180.5662 0071146  42.3210 318.3460 14.78388799300119
SPROUT
1 39770U 14029E   19175.28266152  .00000469  00000-0  58011-4 0  9995
2 39770  97.8854 278.5398 0010478  69.3104 290.9238 14.87342130275666
UNISAT 6
1 40012U 14033C   19175.17446661  .00000102  00000-0  22569-4 0  9997
2 40012  97.7571  41.5501 0059851  80.3732 280.4232 14.73978325269492
DUCHIFAT 1
1 40021U 14033M   19174.84709659 +.00000164 +00000-0 +22558-4 0  9995
2 40021 097.9241 099.4577 0013982 038.4125 321.8086 14.90628650272312
QB50P1
1 40025U 14033R   19175.34528454  .00000145  00000-0  21402-4 0  9993
2 40025  97.9060  95.0205 0013585  45.6428 314.5899 14.88943177272165
CHUBUSAT 1
1 40300U 14070C   19175.44011635  .00000405  00000-0  20609-4 0  9996
2 40300  97.3267 249.4786 0021096  39.2942  20.5347 15.22086015256891
NUDT-PHONESAT
1 40900U 15049B   19175.29989021  .00001104  00000-0  50189-4 0  9998
2 40900  97.4364 184.5780 0013366 157.9533 323.5120 15.22779787208510
ZDPS 2A
1 40901U 15049C   19175.41657646  .00000593  00000-0  32698-4 0  9994
2 40901  97.4591 181.1575 0013281 175.5379 297.1576 15.17722533208105
ZDPS 2B
1 40902U 15049D   19175.51634058  .00000449  00000-0  25698-4 0  9990
2 40902  97.4537 178.7638 0013642 172.5329 342.9213 15.17535321208093
XW-2A
1 40903U 15049E   19175.42589584  .00001249  00000-0  31385-4 0  9993
2 40903  97.3361 218.2220 0015218 120.4617 336.0730 15.41846292211134
KAITUO 1A
1 40904U 15049F   19175.42037068  .00000312  00000-0  20022-4 0  9995
2 40904  97.4660 177.3305 0014303 180.8725 316.9003 15.15361603207865
OBJECT G
1 40905U 15049G   19175.50820911 -.00000106  00000-0 -22231-5 0  9990
2 40905  97.4697 174.9677 0015587 176.2540 340.2959 15.14286830207755
XW-2C
1 40906U 15049H   19175.41858321  .00000334  00000-0  21018-4 0  9999
2 40906  97.4670 177.4017 0014879 172.2406 316.5509 15.15670195207864
XW-2D
1 40907U 15049J   19175.39177682  .00000559  00000-0  32642-4 0  9995
2 40907  97.4643 177.0533 0014354 169.6108 298.9121 15.15859734207873
LILACSAT 2
1 40908U 15049K   19175.41339721  .00000405  00000-0  25986-4 0  9996
2 40908  97.4776 175.9261 0015808 176.6578 289.5614 15.13800181207671
XW-2F
1 40910U 15049M   19175.48818635  .00000678  00000-0  37354-4 0  9996
2 40910  97.4611 179.1329 0015223 162.9637 348.6352 15.17288964207891
XW-2B
1 40911U 15049N   19175.35842832  .00000236  00000-0  15838-4 0  9992
2 40911  97.4670 177.6691 0014033 170.8498 296.2389 15.15787090207769
KAITUO 1B
1 40912U 15049P   19175.44218942  .00000571  00000-0  29994-4 0  9992
2 40912  97.4493 182.7211 0015834 146.5106 352.2058 15.19597642208183
TIANWANG 1C (TW-1C)
1 40926U 15051B   19175.58031721  .00007676  00000-0  11257-3 0  9998
2 40926  97.1340 221.7475 0007850   5.0712 153.0217 15.55786700211074
